Zurück zum Katalog

BREEZE-M DEB

LostHEO
NORAD 41322·DEBRIS·🇷🇺 Russia

Gestartet May 17, 2012 von Baikonur Cosmodrome

Loading…

Nächste Überflüge (nächste 24 Stunden)

TLE

VeraltetSource: Space-Track

Epoche: Dec 1, 2022, 08:54 UTC

1 41322U 12026J   22335.37118200 -.00000077  00000-0  00000+0 0  9994
2 41322  10.5630 247.0726 4029496 206.7362 125.3036  1.77256278 44718

Verfolge BREEZE-M DEB in Echtzeit mit AllMySat

Download on the App Store